When you browse on this site, cookies collect data to enhance your experience and personalize the content and advertising you see.
Visit our Privacy Policy to learn more. By continuing to use the site, you agree to this use of cookies and data.
  • In Denmark
  • List of Countries
  • For 7 days
  • Water Temperature
  • Satellite Maps
  • Weather Map
  • Weather Widgets
  • user-avatar
    Login

    Hourly Weather Winchester

    Today, 17 June, Monday

    Time Temperature Precipitation Wind Pressure Humidity
    00:00 +11°C° 0 mm 4 mps 758 mmHg 95%
    01:00 +10°C° 0 mm 3 mps 758 mmHg 95%
    02:00 +10°C° 0 mm 3 mps 758 mmHg 95%
    03:00 +10°C° 0 mm 3 mps 757 mmHg 95%
    04:00 +11°C° 0 mm 4 mps 757 mmHg 93%
    05:00 +12°C° 0 mm 4 mps 758 mmHg 90%
    06:00 +13°C° 0 mm 4 mps 758 mmHg 88%
    07:00 +13°C° 0 mm 5 mps 758 mmHg 85%
    08:00 +14°C° 0 mm 5 mps 758 mmHg 83%
    09:00 +14°C° 0 mm 5 mps 758 mmHg 81%
    10:00 +15°C° 0 mm 6 mps 758 mmHg 79%
    11:00 +15°C° 0 mm 6 mps 758 mmHg 77%
    12:00 +16°C° 0 mm 6 mps 758 mmHg 75%
    13:00 +16°C° 0 mm 6 mps 758 mmHg 75%
    14:00 +16°C° 0 mm 6 mps 757 mmHg 75%
    15:00 +16°C° 0 mm 6 mps 757 mmHg 75%
    16:00 +16°C° 0 mm 5 mps 757 mmHg 77%
    17:00 +15°C° 0 mm 5 mps 757 mmHg 79%
    18:00 +15°C° 0 mm 4 mps 757 mmHg 81%
    19:00 +13°C° 0 mm 4 mps 757 mmHg 85%
    20:00 +12°C° 0 mm 3 mps 757 mmHg 89%
    21:00 +12°C° 0 mm 2 mps 757 mmHg 93%
    22:00 +12°C° 0 mm 2 mps 757 mmHg 93%
    23:00 +10°C° 0 mm 2 mps 757 mmHg 93%

    Tomorrow, 18 June, Tuesday

    Time Temperature Precipitation Wind Pressure Humidity
    00:00 +10°C° 0 mm 2 mps 757 mmHg 94%
    01:00 +10°C° 0 mm 1 mps 757 mmHg 93%
    02:00 +10°C° 0 mm 1 mps 756 mmHg 93%
    03:00 +10°C° 0 mm 1 mps 756 mmHg 93%
    04:00 +11°C° 0 mm 1 mps 756 mmHg 91%
    05:00 +11°C° 0 mm 0 mps 756 mmHg 90%
    06:00 +12°C° 0 mm 0 mps 756 mmHg 88%
    07:00 +14°C° 0 mm 1 mps 756 mmHg 84%
    08:00 +16°C° 0 mm 1 mps 756 mmHg 79%
    09:00 +17°C° 0 mm 2 mps 756 mmHg 75%
    10:00 +18°C° 0 mm 2 mps 755 mmHg 75%
    11:00 +19°C° 0 mm 2 mps 755 mmHg 75%
    12:00 +20°C° 0 mm 3 mps 755 mmHg 75%
    13:00 +19°C° 0.7 mm 2 mps 754 mmHg 80%
    14:00 +18°C° 0.7 mm 2 mps 754 mmHg 85%
    15:00 +19°C° 0.7 mm 1 mps 753 mmHg 90%
    16:00 +19°C° 0.3 mm 1 mps 753 mmHg 90%
    17:00 +19°C° 0.3 mm 1 mps 753 mmHg 90%
    18:00 +20°C° 0.3 mm 1 mps 752 mmHg 89%
    19:00 +18°C° 0.1 mm 2 mps 752 mmHg 92%
    20:00 +16°C° 0.1 mm 2 mps 752 mmHg 94%
    21:00 +15°C° 0.1 mm 2 mps 752 mmHg 96%
    22:00 +14°C° 0.2 mm 3 mps 751 mmHg 97%
    23:00 +14°C° 0.2 mm 3 mps 750 mmHg 97%

    Day after tomorrow, 19 June, Wednesday

    Time Temperature Precipitation Wind Pressure Humidity
    00:00 +14°C° 0.2 mm 3 mps 750 mmHg 97%
    01:00 +14°C° 0.8 mm 4 mps 749 mmHg 97%
    02:00 +14°C° 0.8 mm 4 mps 749 mmHg 97%
    03:00 +14°C° 0.8 mm 4 mps 748 mmHg 97%
    04:00 +15°C° 0.6 mm 4 mps 748 mmHg 97%
    05:00 +16°C° 0.6 mm 3 mps 748 mmHg 97%
    06:00 +16°C° 0.6 mm 3 mps 747 mmHg 97%
    07:00 +16°C° 0.2 mm 3 mps 748 mmHg 96%
    08:00 +17°C° 0.2 mm 2 mps 748 mmHg 95%
    09:00 +17°C° 0.2 mm 2 mps 748 mmHg 95%
    10:00 +17°C° 0.3 mm 3 mps 748 mmHg 95%
    11:00 +15°C° 0.3 mm 4 mps 749 mmHg 95%
    12:00 +15°C° 0.3 mm 5 mps 749 mmHg 96%
    13:00 +14°C° 0.3 mm 5 mps 749 mmHg 95%
    14:00 +14°C° 0.3 mm 5 mps 750 mmHg 95%
    15:00 +13°C° 0.3 mm 5 mps 750 mmHg 95%
    16:00 +14°C° 0.1 mm 4 mps 750 mmHg 91%
    17:00 +15°C° 0.1 mm 4 mps 751 mmHg 87%
    18:00 +17°C° 0.1 mm 4 mps 751 mmHg 84%
    19:00 +14°C° 0 mm 4 mps 752 mmHg 87%
    20:00 +13°C° 0 mm 4 mps 752 mmHg 90%
    21:00 +11°C° 0 mm 3 mps 752 mmHg 93%
    22:00 +10°C° 0 mm 3 mps 753 mmHg 93%
    23:00 +10°C° 0 mm 3 mps 753 mmHg 93%

    20 June, Thursday

    Time Temperature Precipitation Wind Pressure Humidity
    00:00 +9°C° 0 mm 3 mps 753 mmHg 93%
    01:00 +8°C° 0 mm 3 mps 753 mmHg 94%
    02:00 +8°C° 0 mm 2 mps 753 mmHg 94%
    03:00 +8°C° 0 mm 2 mps 753 mmHg 95%
    04:00 +9°C° 0 mm 2 mps 753 mmHg 94%
    05:00 +10°C° 0 mm 3 mps 753 mmHg 92%
    06:00 +10°C° 0 mm 3 mps 753 mmHg 91%
    07:00 +12°C° 0 mm 3 mps 754 mmHg 85%
    08:00 +13°C° 0 mm 4 mps 754 mmHg 80%
    09:00 +14°C° 0 mm 4 mps 754 mmHg 75%
    10:00 +15°C° 0.1 mm 4 mps 754 mmHg 73%
    11:00 +16°C° 0.1 mm 5 mps 754 mmHg 71%
    12:00 +17°C° 0.1 mm 5 mps 755 mmHg 69%
    13:00 +16°C° 0.3 mm 5 mps 755 mmHg 73%
    14:00 +15°C° 0.3 mm 5 mps 755 mmHg 77%
    15:00 +15°C° 0.3 mm 5 mps 755 mmHg 81%
    16:00 +15°C° 0.1 mm 5 mps 755 mmHg 81%
    17:00 +14°C° 0.1 mm 5 mps 755 mmHg 82%
    18:00 +14°C° 0.1 mm 4 mps 755 mmHg 83%
    19:00 +13°C° 0 mm 4 mps 755 mmHg 86%
    20:00 +12°C° 0 mm 3 mps 755 mmHg 89%
    21:00 +12°C° 0 mm 2 mps 755 mmHg 92%
    22:00 +10°C° 0 mm 2 mps 755 mmHg 93%
    23:00 +10°C° 0 mm 3 mps 755 mmHg 93%

    21 June, Friday

    Time Temperature Precipitation Wind Pressure Humidity
    00:00 +9°C° 0 mm 3 mps 755 mmHg 94%
    01:00 +9°C° 0 mm 3 mps 755 mmHg 94%
    02:00 +9°C° 0 mm 2 mps 755 mmHg 94%
    03:00 +8°C° 0 mm 2 mps 756 mmHg 95%
    04:00 +9°C° 0 mm 2 mps 756 mmHg 93%
    05:00 +10°C° 0 mm 3 mps 756 mmHg 92%
    06:00 +10°C° 0 mm 3 mps 756 mmHg 91%
    07:00 +12°C° 0 mm 3 mps 756 mmHg 84%
    08:00 +13°C° 0 mm 3 mps 757 mmHg 77%
    09:00 +15°C° 0 mm 4 mps 757 mmHg 70%
    10:00 +15°C° 0.1 mm 4 mps 757 mmHg 68%
    11:00 +17°C° 0.1 mm 4 mps 757 mmHg 66%
    12:00 +18°C° 0.1 mm 4 mps 757 mmHg 64%
    13:00 +18°C° 0.1 mm 4 mps 757 mmHg 65%
    14:00 +18°C° 0.1 mm 4 mps 757 mmHg 66%
    15:00 +17°C° 0.1 mm 5 mps 757 mmHg 67%
    16:00 +17°C° 0.1 mm 4 mps 757 mmHg 72%
    17:00 +16°C° 0.1 mm 3 mps 757 mmHg 77%
    18:00 +16°C° 0.1 mm 3 mps 757 mmHg 82%
    19:00 +14°C° 0 mm 2 mps 758 mmHg 85%
    20:00 +13°C° 0 mm 2 mps 758 mmHg 88%
    21:00 +12°C° 0 mm 2 mps 758 mmHg 90%
    22:00 +10°C° 0 mm 2 mps 758 mmHg 90%
    23:00 +10°C° 0 mm 1 mps 758 mmHg 91%

    22 June, Saturday

    Time Temperature Precipitation Wind Pressure Humidity
    00:00 +10°C° 0 mm 1 mps 758 mmHg 91%
    01:00 +10°C° 0 mm 1 mps 758 mmHg 91%
    02:00 +9°C° 0 mm 1 mps 758 mmHg 91%
    03:00 +9°C° 0 mm 1 mps 758 mmHg 92%
    04:00 +10°C° 0 mm 1 mps 758 mmHg 90%
    05:00 +11°C° 0 mm 1 mps 758 mmHg 89%
    06:00 +12°C° 0 mm 1 mps 758 mmHg 88%
    07:00 +13°C° 0 mm 1 mps 758 mmHg 83%
    08:00 +15°C° 0 mm 1 mps 758 mmHg 78%
    09:00 +18°C° 0 mm 1 mps 758 mmHg 72%
    10:00 +18°C° 0.1 mm 1 mps 758 mmHg 71%
    11:00 +18°C° 0.1 mm 2 mps 758 mmHg 69%
    12:00 +19°C° 0.1 mm 2 mps 757 mmHg 67%
    13:00 +19°C° 0.2 mm 2 mps 757 mmHg 68%
    14:00 +19°C° 0.2 mm 3 mps 757 mmHg 70%
    15:00 +19°C° 0.2 mm 3 mps 756 mmHg 71%
    16:00 +18°C° 0.1 mm 2 mps 756 mmHg 72%
    17:00 +18°C° 0.1 mm 2 mps 756 mmHg 73%
    18:00 +18°C° 0.1 mm 1 mps 756 mmHg 74%
    19:00 +15°C° 0 mm 1 mps 756 mmHg 78%
    20:00 +14°C° 0 mm 1 mps 756 mmHg 81%
    21:00 +12°C° 0 mm 1 mps 756 mmHg 85%
    22:00 +12°C° 0 mm 1 mps 756 mmHg 83%
    23:00 +11°C° 0 mm 1 mps 756 mmHg 81%
    Show more